{"data":{"norad_id":63524,"intl_designator":"2025-073A","name":"TJS-17","alt_names":[],"object_type":"PAYLOAD","status":"ACTIVE","operator":null,"country":"PRC","launch_date":"2025-04-10","launch_site_code":"XICLF","launch_vehicle":null,"mission":null,"orbit_class":"UNKNOWN","rcs_meters":null,"size_class":null,"mass_kg":null,"dimensions":null,"purposes":["comms"],"wikipedia_slug":null,"has_3d_model":false,"image_url":null,"decayed_at":null,"tle_current":{"epoch":"2026-09-19T19:52:02.834976Z","epoch_age_seconds":76416,"freshness":"FRESH","line1":"1 63524U 25073A   26262.82781059 -.00000074  00000+0  00000+0 0  9995","line2":"2 63524   1.3012  81.6709 0001250 172.5647 207.0214  1.00272064  5249","mean_motion":1.00272064,"eccentricity":0.000125,"inclination_deg":1.3012,"raan_deg":81.6709,"arg_perigee_deg":172.5647,"mean_anomaly_deg":207.0214,"bstar":0,"rev_number":524,"period_min":1436.0929081903,"perigee_km":35781.246165826,"apogee_km":35791.787329262,"semimajor_km":42164.653747544,"source":"CELESTRAK","updated_at":"2026-09-20T09:00:35.343687Z"}}}